Flag Weather past 2 weeks in Krasnodar, Russia

Now
32 °F

Clear.


Feels Like: 25 °F
Forecast: 28 / 39 °F
Wind: 8 mph from Northeast

Location: Krasnodar Airport

Current Time: Nov 26, 2014 at 7:17:37 PM

Latest Report: Nov 26, 2014 at 6:30 PM


Visibility: 10 mi

Pressure: 30.09 "Hg

Humidity: 87%

Dew point: 28 °F

Location of KrasnodarLocation

Historic Weather in Krasnodar — Graph

°F

Krasnodar temperature yesterday

Maximum temperature yesterday: 37 °F (at 12:30 PM)
Minimum temperature yesterday: 25 °F (at 3:30 AM)
Average temperature yesterday: 30 °F

Past Weeks' High & Low Weather Summary

 TemperatureHumidityPressure
High59 °F (Nov 14, 1:30 PM)100% (Nov 12, 8:00 AM)30.39 "Hg (Nov 12, 8:00 AM)
Low21 °F (Nov 24, 5:00 AM)48% (Nov 24, 12:00 PM)30.01 "Hg (Nov 16, 3:30 AM)
Average39 °F84%30.16 "Hg
* Reported Nov 11 6:00 PM — Nov 26 6:00 PM, Krasnodar, Weather by CustomWeather, © 2014

Note: Actual official high and low records may vary slightly from our data, if they occured in-between our weather recording intervals... More about our weather records

Advertising

Krasnodar weather history for previous 24 hours

 ConditionsComfort  
Time TempWeatherWind HumidityBarometerVisibility
6:00 PM
Nov 26
34 °FClear.8 mph81%30.09 "Hg10 mi
5:30 PM34 °FSunny.8 mph81%30.09 "Hg10 mi
5:00 PM36 °FSunny.8 mph81%30.09 "Hg10 mi
4:30 PM37 °FSunny.8 mph75%30.09 "Hg10 mi
4:00 PM39 °FSunny.10 mph70%30.09 "Hg10 mi
3:30 PM39 °FSunny.13 mph70%30.09 "Hg10 mi
3:00 PM41 °FSunny.8 mph66%30.09 "Hg10 mi
2:30 PM41 °FSunny.10 mph66%30.09 "Hg10 mi
2:00 PM41 °FPassing clouds.10 mph66%30.09 "HgN/A
1:30 PM41 °FPassing clouds.8 mph66%30.09 "HgN/A
1:00 PM37 °FPartly sunny.8 mph70%30.12 "HgN/A
12:30 PM39 °FPartly sunny.8 mph70%30.12 "HgN/A
12:00 PM37 °FPartly sunny.10 mph70%30.12 "HgN/A
11:30 AM37 °FPartly sunny.10 mph70%30.12 "HgN/A
11:00 AM34 °FPartly sunny.10 mph81%30.12 "HgN/A
10:30 AM34 °FPartly sunny.10 mph81%30.12 "HgN/A
10:00 AM32 °FScattered clouds.8 mph87%30.12 "HgN/A
9:30 AM30 °FScattered clouds.6 mph86%30.15 "HgN/A
9:00 AM28 °FPassing clouds.6 mph86%30.15 "HgN/A
8:30 AM27 °FPassing clouds.6 mph86%30.15 "HgN/A
8:00 AM25 °FPassing clouds.6 mph93%30.15 "HgN/A
7:30 AM25 °FPassing clouds.8 mph93%30.15 "HgN/A
7:00 AM27 °FClear.8 mph86%30.15 "Hg10 mi
6:30 AM27 °FClear.6 mph86%30.12 "Hg10 mi
6:00 AM27 °FClear.8 mph86%30.15 "Hg10 mi
5:30 AM27 °FClear.8 mph93%30.15 "Hg10 mi
5:00 AM27 °FClear.6 mph93%30.15 "Hg10 mi
4:30 AM27 °FClear.10 mph93%30.15 "Hg10 mi
4:00 AM27 °FClear.8 mph93%30.15 "Hg10 mi
3:30 AM27 °FClear.8 mph93%30.15 "Hg10 mi
3:00 AM28 °FClear.6 mph86%30.15 "Hg10 mi
2:30 AM28 °FClear.8 mph86%30.18 "Hg10 mi
2:00 AM28 °FClear.8 mph86%30.18 "Hg10 mi
1:30 AM28 °FClear.8 mph93%30.18 "Hg10 mi
1:00 AM28 °FClear.8 mph93%30.18 "Hg10 mi
12:30 AM28 °FClear.10 mph93%30.18 "Hg10 mi
12:00 AM28 °FClear.10 mph93%30.18 "Hg10 mi
11:30 PM
Nov 25
28 °FClear.10 mph93%30.21 "Hg10 mi
11:00 PM28 °FClear.10 mph93%30.18 "Hg10 mi
10:30 PM28 °FClear.10 mph93%30.21 "Hg10 mi
10:00 PM28 °FClear.10 mph93%30.21 "Hg10 mi
9:30 PM28 °FClear.10 mph93%30.21 "Hg10 mi
9:00 PM28 °FClear.13 mph93%30.21 "Hg10 mi
8:30 PM30 °FClear.10 mph86%30.21 "Hg10 mi
8:00 PM30 °FClear.13 mph86%30.24 "Hg10 mi
7:30 PM30 °FClear.13 mph86%30.24 "Hg10 mi
7:00 PM30 °FClear.13 mph86%30.24 "Hg10 mi
Weather by CustomWeather, © 2014

See weather overviewHow to use our weather pages